Flag for Finland Weather past 2 weeks in Joensuu, Finland

Now
50 °F

Partly sunny.


Feels Like: 47 °F
Forecast: 38 / 54 °F
Wind: 7 mph from West

Location: Joensuu Airport


UV Index: 0 (Low)

Visibility: N/A


Pressure: 29.98 "Hg

Humidity: 58%

Dew point: 36 °F

Location of JoensuuLocation

Historic Weather in Joensuu

°F

Joensuu temperature yesterday

Maximum temperature yesterday: 48 °F (at 5:20 PM)
Minimum temperature yesterday: 27 °F (at 4:20 AM)
Average temperature yesterday: 39 °F

Past Weeks' High & Low Weather Summary

 TemperatureHumidityPressure
High52 °F (Apr 18, 2:20 PM)100% (Apr 11, 10:50 PM)30.39 "Hg (Apr 11, 10:50 PM)
Low18 °F (Apr 4, 6:20 AM)24% (Apr 7, 3:50 PM)29.33 "Hg (Apr 14, 4:50 AM)
Average35 °F67%29.83 "Hg
* Reported Apr 3 4:20 PM — Apr 18 4:50 PM, Joensuu, Weather by CustomWeather, © 2014

Note: Actual official high and low records may vary slightly from our data, if they occured in-between our weather recording intervals... More about our weather records

Advertising

Historic Weather Conditions — Data for Previous 24 hours

 ConditionsComfort  
Time TempWeatherWind HumidityBarometerVisibility
4:50 PM
Apr 18
50 °FPartly sunny.9 mph58%29.98 "HgN/A
4:20 PM52 °FOvercast.12 mph54%29.95 "HgN/A
3:50 PM52 °FPartly sunny.7 mph50%29.95 "HgN/A
3:20 PM52 °FBroken clouds.9 mph50%29.95 "HgN/A
2:50 PM52 °FPartly sunny.10 mph50%29.92 "HgN/A
2:20 PM52 °FPassing clouds.10 mph50%29.92 "HgN/A
1:50 PM50 °FPassing clouds.10 mph54%29.92 "HgN/A
1:20 PM50 °FPassing clouds.12 mph50%29.89 "HgN/A
12:50 PM50 °FPassing clouds.12 mph50%29.89 "HgN/A
12:20 PM48 °FPassing clouds.9 mph54%29.89 "HgN/A
11:50 AM48 °FPassing clouds.10 mph54%29.86 "HgN/A
11:20 AM48 °FPassing clouds.14 mph54%29.86 "HgN/A
10:50 AM46 °FPassing clouds.14 mph57%29.83 "HgN/A
10:20 AM46 °FPassing clouds.12 mph57%29.83 "HgN/A
9:50 AM46 °FPassing clouds.9 mph57%29.83 "HgN/A
9:20 AM45 °FPassing clouds.10 mph57%29.80 "HgN/A
8:50 AM45 °FPassing clouds.10 mph57%29.80 "HgN/A
8:20 AM45 °FPassing clouds.10 mph57%29.80 "HgN/A
7:50 AM43 °FPassing clouds.7 mph61%29.80 "HgN/A
7:20 AM41 °FPassing clouds.8 mph66%29.77 "HgN/A
6:50 AM41 °FPassing clouds.7 mph66%29.77 "HgN/A
6:20 AM41 °FPassing clouds.7 mph61%29.77 "HgN/A
5:50 AM41 °FPassing clouds.8 mph61%29.77 "HgN/A
5:20 AM41 °FPassing clouds.7 mph61%29.77 "HgN/A
4:50 AM41 °FPassing clouds.7 mph61%29.77 "HgN/A
4:20 AM41 °FPassing clouds.8 mph57%29.77 "HgN/A
3:50 AM43 °FPassing clouds.10 mph53%29.77 "HgN/A
3:20 AM43 °FPassing clouds.10 mph53%29.77 "HgN/A
2:50 AM43 °FPassing clouds.12 mph53%29.77 "HgN/A
2:20 AM43 °FPassing clouds.12 mph53%29.77 "HgN/A
1:50 AM43 °FPassing clouds.9 mph53%29.77 "HgN/A
1:20 AM43 °FPassing clouds.10 mph53%29.74 "HgN/A
12:50 AM43 °FPassing clouds.7 mph49%29.74 "HgN/A
12:20 AM45 °FPassing clouds.10 mph46%29.74 "HgN/A
11:50 PM
Apr 17
43 °FPassing clouds.12 mph53%29.74 "HgN/A
11:20 PM43 °FClear.10 mph53%29.74 "Hg10 mi
10:50 PM45 °FPassing clouds.10 mph49%29.74 "HgN/A
10:20 PM45 °FPassing clouds.12 mph46%29.74 "HgN/A
9:50 PM46 °FPassing clouds.12 mph46%29.74 "HgN/A
9:20 PM45 °FPassing clouds.6 mph61%29.74 "HgN/A
8:50 PM43 °FSunny.8 mph71%29.74 "Hg10 mi
7:50 PM46 °FPassing clouds.9 mph66%29.74 "HgN/A
7:20 PM46 °FPartly sunny.8 mph62%29.77 "HgN/A
6:50 PM46 °FPassing clouds.7 mph62%29.77 "HgN/A
6:20 PM46 °FPassing clouds.14 mph57%29.77 "HgN/A
Weather by CustomWeather, © 2014

See weather overview